DLH453 KLAX-EDDM

Flight info

Callsign DLH453
Flight time N/A
Altitude 35000
Route DOTSS2 CLEEE DCT PKE DCT KA30O DCT KD36Q DCT KD45U DCT KD57A DCT KP69G DCT KG75K DCT BAE DCT ODAXY DCT 4630N08000W/N0481F370 DCT MOFAT DCT 52N065W DCT JANJO/M082F380 NATT KESIX/N0474F390 DCT APSOV DCT PEPOD DCT MAKUX DCT SOSIM L15 GIGTO UQ4 WAL M16 DOLAS DCT NAVPI DCT DOJOH DCT DODEN/N0440F330 DCT TABUM DCT BOMBI T104 HAREM/N0392F270 T104 ROKIL ROKIL1B
Aircraft A388/J-SADE2E3GHIJ3J4J5LM1OP2RWXYZ/LB1D1

Departure

Time 2026-05-06 21:19
Airport Los Angeles International Airport (KLAX)

Arrival

Time N/A
Airport Munich Airport (EDDM)
Time Latitude Longitude Altitude Speed Heading
2026-05-06 20:32 33.94099 -118.41091 100 ft 0 kts 83°
2026-05-06 21:05 33.94098 -118.41100 98 ft 4 kts 83°
2026-05-06 21:06 33.94094 -118.41132 99 ft 4 kts 83°
2026-05-06 21:06 33.94091 -118.41157 98 ft 4 kts 71°
2026-05-06 21:06 33.94080 -118.41179 99 ft 4 kts 39°
2026-05-06 21:06 33.94061 -118.41188 98 ft 4 kts
2026-05-06 21:07 33.94037 -118.41186 99 ft 4 kts 353°
2026-05-06 21:07 33.94012 -118.41183 101 ft 2 kts 353°
2026-05-06 21:07 33.94011 -118.41183 98 ft 1 kts 353°
2026-05-06 21:10 33.94020 -118.41184 98 ft 3 kts 347°
2026-05-06 21:11 33.94031 -118.41190 101 ft 1 kts 311°
2026-05-06 21:11 33.94041 -118.41208 100 ft 4 kts 289°
2026-05-06 21:11 33.94046 -118.41250 98 ft 4 kts 300°
2026-05-06 21:11 33.94068 -118.41278 100 ft 5 kts 326°
2026-05-06 21:12 33.94109 -118.41296 99 ft 7 kts 351°
2026-05-06 21:12 33.94171 -118.41306 101 ft 10 kts 352°
2026-05-06 21:12 33.94247 -118.41319 99 ft 12 kts 352°
2026-05-06 21:12 33.94330 -118.41332 102 ft 12 kts 352°
2026-05-06 21:13 33.94418 -118.41344 99 ft 13 kts 353°
2026-05-06 21:13 33.94510 -118.41357 100 ft 14 kts 353°
2026-05-06 21:13 33.94607 -118.41372 100 ft 14 kts 353°
2026-05-06 21:13 33.94706 -118.41385 99 ft 14 kts 353°
2026-05-06 21:14 33.94778 -118.41344 101 ft 12 kts 66°
2026-05-06 21:14 33.94797 -118.41235 100 ft 15 kts 81°
2026-05-06 21:14 33.94811 -118.41099 100 ft 18 kts 83°
2026-05-06 21:14 33.94827 -118.40940 101 ft 20 kts 83°
2026-05-06 21:15 33.94846 -118.40773 99 ft 21 kts 83°
2026-05-06 21:15 33.94865 -118.40587 100 ft 23 kts 83°
2026-05-06 21:15 33.94882 -118.40421 100 ft 19 kts 83°
2026-05-06 21:15 33.94897 -118.40264 101 ft 18 kts 83°
2026-05-06 21:16 33.94913 -118.40114 100 ft 13 kts 83°
2026-05-06 21:16 33.94923 -118.40019 98 ft 12 kts 82°
2026-05-06 21:16 33.94932 -118.39953 98 ft 6 kts 66°
2026-05-06 21:16 33.94964 -118.39916 100 ft 7 kts 19°
2026-05-06 21:17 33.95015 -118.39913 100 ft 7 kts 339°
2026-05-06 21:17 33.95037 -118.39945 100 ft 5 kts 282°
2026-05-06 21:17 33.95037 -118.39981 101 ft 4 kts 261°
2026-05-06 21:17 33.95036 -118.39987 98 ft 1 kts 262°
2026-05-06 21:18 33.95022 -118.40132 103 ft 50 kts 263°
2026-05-06 21:18 33.94952 -118.40830 105 ft 115 kts 263°
2026-05-06 21:18 33.94841 -118.41972 109 ft 155 kts 264°
2026-05-06 21:18 33.94769 -118.42829 402 ft 152 kts 262°
2026-05-06 21:19 33.94639 -118.44095 895 ft 153 kts 262°
2026-05-06 21:19 33.94511 -118.45404 1350 ft 162 kts 262°
2026-05-06 21:19 33.94372 -118.46755 1854 ft 164 kts 264°
2026-05-06 21:19 33.94291 -118.48172 2100 ft 174 kts 267°
2026-05-06 21:20 33.94250 -118.49698 2180 ft 190 kts 268°
2026-05-06 21:20 33.94186 -118.51334 2308 ft 202 kts 264°
2026-05-06 21:20 33.94050 -118.53055 2430 ft 211 kts 264°
2026-05-06 21:20 33.93909 -118.54866 2524 ft 227 kts 264°
2026-05-06 21:21 33.93751 -118.56845 2777 ft 247 kts 265°
2026-05-06 21:21 33.93590 -118.58990 3081 ft 263 kts 266°
2026-05-06 21:21 33.93318 -118.61191 3643 ft 272 kts 252°
2026-05-06 21:21 33.92314 -118.63118 4325 ft 277 kts 225°
2026-05-06 21:22 33.90666 -118.64332 4965 ft 283 kts 198°
2026-05-06 21:22 33.88701 -118.64594 5500 ft 289 kts 175°
2026-05-06 21:22 33.86714 -118.64311 6257 ft 287 kts 170°
2026-05-06 21:22 33.84753 -118.63881 6893 ft 288 kts 161°
2026-05-06 21:23 33.82924 -118.62912 7500 ft 287 kts 144°
2026-05-06 21:23 33.81297 -118.61514 8115 ft 288 kts 141°
2026-05-06 21:23 33.79653 -118.60125 8785 ft 290 kts 142°
2026-05-06 21:23 33.77971 -118.58754 9426 ft 293 kts 142°
2026-05-06 21:24 33.76275 -118.57387 10061 ft 295 kts 142°
2026-05-06 21:24 33.74536 -118.55980 10353 ft 310 kts 142°
2026-05-06 21:24 33.72700 -118.54489 10523 ft 327 kts 142°
2026-05-06 21:24 33.70848 -118.52814 10667 ft 339 kts 132°
2026-05-06 21:25 33.69409 -118.50576 11086 ft 339 kts 115°
2026-05-06 21:25 33.68503 -118.47981 11628 ft 337 kts 105°
2026-05-06 21:25 33.67734 -118.45297 12124 ft 341 kts 106°
2026-05-06 21:25 33.66936 -118.42604 12639 ft 344 kts 106°
2026-05-06 21:26 33.66124 -118.39886 13182 ft 347 kts 106°
2026-05-06 21:26 33.65309 -118.37145 13693 ft 350 kts 104°
2026-05-06 21:26 33.64702 -118.34319 14156 ft 351 kts 96°
2026-05-06 21:26 33.64447 -118.31418 14658 ft 349 kts 88°
2026-05-06 21:27 33.64462 -118.28502 15130 ft 350 kts 86°
2026-05-06 21:27 33.64478 -118.25575 15611 ft 352 kts 86°
2026-05-06 21:27 33.64479 -118.22627 16048 ft 355 kts 86°
2026-05-06 21:27 33.64475 -118.19661 16515 ft 357 kts 86°
2026-05-06 21:28 33.64472 -118.16671 16968 ft 359 kts 86°
2026-05-06 21:28 33.64467 -118.13662 17416 ft 361 kts 86°
2026-05-06 21:28 33.64464 -118.10643 17883 ft 363 kts 86°
2026-05-06 21:28 33.64464 -118.07599 18317 ft 366 kts 86°
2026-05-06 21:29 33.64463 -118.04543 18731 ft 367 kts 86°
2026-05-06 21:29 33.64460 -118.01470 19126 ft 369 kts 86°
2026-05-06 21:29 33.64453 -117.98378 19499 ft 371 kts 86°
2026-05-06 21:29 33.64449 -117.95274 19873 ft 373 kts 86°
2026-05-06 21:30 33.64445 -117.92149 20277 ft 375 kts 86°
2026-05-06 21:30 33.64450 -117.88956 20642 ft 376 kts 83°
2026-05-06 21:30 33.64824 -117.85923 20982 ft 375 kts 76°
2026-05-06 21:30 33.65317 -117.82839 21354 ft 377 kts 76°
2026-05-06 21:31 33.65807 -117.79741 21721 ft 379 kts 76°
2026-05-06 21:31 33.66297 -117.76627 22061 ft 381 kts 76°
2026-05-06 21:31 33.66789 -117.73487 22408 ft 383 kts 76°
2026-05-06 21:31 33.67280 -117.70331 22760 ft 385 kts 76°
2026-05-06 21:32 33.67773 -117.67160 23120 ft 387 kts 76°
2026-05-06 21:32 33.68761 -117.60766 23796 ft 391 kts 76°
2026-05-06 21:32 33.69255 -117.57557 24148 ft 391 kts 76°
2026-05-06 21:33 33.69752 -117.54328 24394 ft 393 kts 76°
2026-05-06 21:33 33.70246 -117.51097 24706 ft 395 kts 76°
2026-05-06 21:33 33.70744 -117.47848 25038 ft 396 kts 76°
2026-05-06 21:33 33.71243 -117.44589 25382 ft 397 kts 76°
2026-05-06 21:34 33.71742 -117.41319 25734 ft 399 kts 76°
2026-05-06 21:34 33.72242 -117.38041 26060 ft 400 kts 76°
2026-05-06 21:34 33.72744 -117.34744 26366 ft 403 kts 76°
2026-05-06 21:34 33.73246 -117.31439 26784 ft 402 kts 76°
2026-05-06 21:35 33.73755 -117.28086 27158 ft 404 kts 76°
2026-05-06 21:35 33.74251 -117.24799 27497 ft 406 kts 76°
2026-05-06 21:35 33.74755 -117.21460 27879 ft 407 kts 76°
2026-05-06 21:35 33.75260 -117.18109 28243 ft 409 kts 76°
2026-05-06 21:36 33.75766 -117.14741 28619 ft 410 kts 76°
2026-05-06 21:36 33.76273 -117.11364 29051 ft 410 kts 76°
2026-05-06 21:36 33.76778 -117.07982 29385 ft 413 kts 76°
2026-05-06 21:36 33.77288 -117.04573 29726 ft 416 kts 76°
2026-05-06 21:37 33.77797 -117.01150 30127 ft 417 kts 76°
2026-05-06 21:37 33.78310 -116.97710 30458 ft 418 kts 76°
2026-05-06 21:37 33.78823 -116.94263 30779 ft 420 kts 76°
2026-05-06 21:37 33.79344 -116.90753 31117 ft 421 kts 76°
2026-05-06 21:38 33.79858 -116.87277 31385 ft 424 kts 76°
2026-05-06 21:38 33.80372 -116.83809 31563 ft 429 kts 76°
2026-05-06 21:38 33.80889 -116.80294 32041 ft 426 kts 76°
2026-05-06 21:38 33.81404 -116.76783 32345 ft 429 kts 76°
2026-05-06 21:39 33.81929 -116.73194 32730 ft 429 kts 76°
2026-05-06 21:39 33.82448 -116.69659 33024 ft 431 kts 76°
2026-05-06 21:39 33.82975 -116.66088 33256 ft 435 kts 76°
2026-05-06 21:39 33.83498 -116.62504 33580 ft 437 kts 76°
2026-05-06 21:40 33.84022 -116.58906 33923 ft 438 kts 76°
2026-05-06 21:40 33.84547 -116.55284 34242 ft 440 kts 76°
2026-05-06 21:40 33.85071 -116.51662 34574 ft 440 kts 76°
2026-05-06 21:40 33.85597 -116.48025 34740 ft 443 kts 76°
2026-05-06 21:41 33.86127 -116.44366 35001 ft 444 kts 76°
2026-05-06 21:41 33.86659 -116.40682 35029 ft 452 kts 76°
2026-05-06 21:41 33.87717 -116.33290 35021 ft 446 kts 76°
2026-05-06 21:42 33.88772 -116.25911 35019 ft 448 kts 76°
2026-05-06 21:42 33.89826 -116.18499 35009 ft 449 kts 76°
2026-05-06 21:43 33.90877 -116.11093 35006 ft 449 kts 76°
2026-05-06 21:43 33.91923 -116.03674 35013 ft 450 kts 76°
2026-05-06 21:44 33.92966 -115.96246 35022 ft 450 kts 77°
2026-05-06 21:44 33.94004 -115.88812 35021 ft 450 kts 77°
2026-05-06 21:45 33.95036 -115.81384 35013 ft 450 kts 77°
2026-05-06 21:45 33.96063 -115.73946 35018 ft 450 kts 77°
2026-05-06 21:46 33.97090 -115.66514 35017 ft 450 kts 77°
2026-05-06 21:46 33.98111 -115.59085 35008 ft 449 kts 77°
2026-05-06 21:47 33.99126 -115.51661 34999 ft 448 kts 77°
2026-05-06 21:47 34.00130 -115.44248 34991 ft 448 kts 77°
2026-05-06 21:48 34.01133 -115.36848 34987 ft 447 kts 77°
2026-05-06 21:48 34.02133 -115.29437 34998 ft 449 kts 77°
2026-05-06 21:49 34.03130 -115.22009 34983 ft 449 kts 77°
2026-05-06 21:49 34.04122 -115.14569 34989 ft 450 kts 77°
2026-05-06 21:50 34.05111 -115.07110 34990 ft 451 kts 77°
2026-05-06 21:50 34.06098 -114.99646 34989 ft 452 kts 78°
2026-05-06 21:51 34.07082 -114.92154 34976 ft 453 kts 78°
2026-05-06 21:51 34.08066 -114.84653 34981 ft 453 kts 78°
2026-05-06 21:52 34.09044 -114.77145 34987 ft 453 kts 78°
2026-05-06 21:52 34.10093 -114.69657 34982 ft 451 kts 73°
2026-05-06 21:53 34.12169 -114.62557 34979 ft 448 kts 65°
2026-05-06 21:53 34.14596 -114.55628 34976 ft 448 kts 65°
2026-05-06 21:54 34.17001 -114.48698 34970 ft 447 kts 65°
2026-05-06 21:54 34.19404 -114.41770 34969 ft 447 kts 65°
2026-05-06 21:55 34.21804 -114.34838 34943 ft 448 kts 65°
2026-05-06 21:55 34.24188 -114.27933 34942 ft 448 kts 65°
2026-05-06 21:56 34.26582 -114.20986 34967 ft 447 kts 65°
2026-05-06 21:56 34.28969 -114.14042 34968 ft 447 kts 65°
2026-05-06 21:57 34.31353 -114.07093 34974 ft 447 kts 65°
2026-05-06 21:57 34.33734 -114.00139 34946 ft 448 kts 65°
2026-05-06 21:58 34.36117 -113.93170 34957 ft 448 kts 65°
2026-05-06 21:58 34.38494 -113.86196 34970 ft 448 kts 65°
2026-05-06 21:59 34.40869 -113.79211 34967 ft 448 kts 65°
2026-05-06 21:59 34.42855 -113.73357 34964 ft 449 kts 65°
2026-05-06 22:00 34.45212 -113.66392 34972 ft 450 kts 65°
2026-05-06 22:00 34.47588 -113.59359 34978 ft 451 kts 65°
2026-05-06 22:01 34.49964 -113.52317 34970 ft 451 kts 65°
2026-05-06 22:01 34.52332 -113.45273 34970 ft 451 kts 66°
2026-05-06 22:02 34.54700 -113.38218 34966 ft 452 kts 65°
2026-05-06 22:02 34.57069 -113.31148 34972 ft 452 kts 65°
2026-05-06 22:03 34.59433 -113.24074 34968 ft 453 kts 65°
2026-05-06 22:03 34.61796 -113.16982 34974 ft 453 kts 66°
2026-05-06 22:04 34.64152 -113.09902 34975 ft 453 kts 66°
2026-05-06 22:04 34.66513 -113.02782 34939 ft 455 kts 66°
2026-05-06 22:05 34.68875 -112.95639 34955 ft 456 kts 66°
2026-05-06 22:05 34.71245 -112.88467 34964 ft 458 kts 66°
2026-05-06 22:06 34.73618 -112.81269 34962 ft 459 kts 66°
2026-05-06 22:06 34.75993 -112.74041 34943 ft 462 kts 66°
2026-05-06 22:07 34.78376 -112.66773 34956 ft 463 kts 66°
2026-05-06 22:07 34.80763 -112.59481 34967 ft 464 kts 66°
2026-05-06 22:08 34.83147 -112.52174 34973 ft 465 kts 66°
2026-05-06 22:08 34.84337 -112.48513 35096 ft 464 kts 66°
2026-05-06 22:08 34.85521 -112.44871 35045 ft 460 kts 66°